CZ-4B DEB

Satellite information

Favourite Embed

Satellite Type and Status

DEBRISIN ORBIT

Key statistics

Satellite CZ-4B DEB at a glance.

Uptime

9497

Days in orbit

Revolutions

≈ 14.3

Per day

Orbit

SSO

Sun Synchronous Orbit

Inclination

98.7

Latest

Satellite identification and parameters

Extended collection of information and parameters for CZ-4B DEB.

Object identification

Identified? True

Debris? True

Object name: CZ-4B DEB

International designator: 1999-025EKE

Object number (NORAD): 37581

Object ID (CCSDS): 37581

Country: PEOPLES REPUBLIC OF CHINA (PRC)

Current information (Y/N): Y

RCS size: SMALL

Orbital parameters

Period: 100.938 minutes

Inclination: 98.749 deg

SMA: 7181.198 km

Apoapsis: 878.644 km

Periapsis: 727.482 km

RAAN: 168.8264 deg

Eccentricy: 0.0105249

Argument of periapsis: 323.5572 deg

Mean anomaly: 215.1735 deg

Mean motion: 14.2661708 rev/day

Mean motion (dot): 0.00001337 rev/day2

B* drag term: 0.00054004 1/REarth

Two-line elements (TLE)

Creation date: May 6, 2025, 3:54 a.m.

Reference frame: TEME

Reference center: EARTH

Epoch: May 5, 2025, 8:47 p.m. UTC

TLE line 0: 0 CZ-4B DEB

TLE line 1: 1 37581U 99025EKE 25125.86632425 .00001337 00000-0 54004-3 0 9990

TLE line 2: 2 37581 98.7490 168.8264 0105249 323.5572 215.1735 14.26617080185391

Live tracking on map

Real-time ground track for satellite CZ-4B DEB.

In-orbit conjunctions

A list of the most updated potential collisions computed for object CZ-4B DEB.

Target Orbit TCA Probability of collision Miss distance Type
CZ-6A DEB LEO 2025-02-06 20:26:38 0.0001170524 508.0 (m) DEBRIS
SL-8 R/B LEO 2024-11-01 00:29:24 0.0001156085 455.0 (m) ROCKET BODY
FENGYUN 1C SSO 2024-06-22 13:05:59 0.0001234789 836.0 (m) PAYLOAD

Associated space launch

Chinese polar orbiting meteorological satellite

CZ-4B DEB was lifted into orbit during the mission ‘Long March 4B | Feng Yun 1C’, on board a Long March 4B space rocket.

The launch took place on May 10, 1999, 1:33 a.m. from Launch Complex 7.

For more information about the launch, click the button.

Launch to space Long March 4B | Feng Yun 1C
Long March 4B | Feng Yun 1C

Agency: N/A

Status: Launch Successful

Launch date: May 10, 1999, 1:33 a.m. UTC

Rocket: Long March 4B

Launch pad: Launch Complex 7

Location: Taiyuan Satellite Launch Center, People's Republic of China

...

Latest news about this satellite

There are no fresh news available about this satellite. Check back as we update our databases every day.


Newsletter sign-up

Weekly statistics, charts and insights to help you stay on top of the space industry.